Regional Weather Roundup
Issued by NWS Cleveland, OH

Current Version | Previous Version | Graphics & Text | Print | Product List | Glossary On
Versions: 1 2 3 4 5 6 7 8 9 10 11 12 13 14 15 16 17 18 19 20 21 22 23 24 25 26 27 28 29 30 31 32 33 34 35 36 37 38 39 40 41 42 43 44 45 46 47 48 49 50
000
ASUS41 KCLE 051112
RWRCLE
OHIO REGIONAL WEATHER ROUNDUP
NATIONAL WEATHER SERVICE WILMINGTON, OH
600 AM EST FRI MAR 05 2021

NOTE: "FAIR" INDICATES FEW OR NO CLOUDS BELOW 12,000 FEET WITH NO
SIGNIFICANT WEATHER AND/OR OBSTRUCTIONS TO VISIBILITY.

OHZ001>008-015>018-024>027-034-035-043-044-051200-
   NORTHWEST OHIO

CITY           SKY/WX    TMP DP  RH WIND       PRES   REMARKS
DEFIANCE       FAIR      22  12  65 NW6       30.31S WCI  14
FINDLAY        FAIR      23  15  71 NW9       30.27R WCI  13
TOLEDO EXPRESS FAIR      22  13  68 W5        30.29R WCI  16
TOLEDO EXEC    FAIR      21  13  71 NW7       30.29S WCI  12
LIMA           FAIR      22  15  75 NW7       30.27S WCI  13
$$

OHZ009>014-019>023-028>033-038-089-051200-
   NORTHEAST OHIO

CITY           SKY/WX    TMP DP  RH WIND       PRES   REMARKS
CLE-HOPKINS    FAIR      24  11  57 NW7       30.22S WCI  16
CLE-LAKEFRONT  FAIR      28  14  55 NW16      30.23R WCI  16
CUY CO. ARPT   FAIR      24  12  59 NW9       30.23R WCI  14
LORAIN-ELYRIA  FAIR      23  11  60 NW5       30.24S WCI  17
ASHTABULA      FAIR      24  15  68 NW8       30.17F WCI  15
AKRON-CANTON   FAIR      18  12  77 W6        30.19S WCI  10
WOOSTER        FAIR      19  15  84 W5        30.22S WCI  12
MANSFIELD      FAIR      21  16  81 W6        30.21S WCI  13
YOUNGSTOWN     MOCLDY    21  13  71 W8        30.16F WCI  11
$$

OHZ042-051>053-060>062-070>072-077>081-051200-
  SOUTHWEST OHIO

CITY           SKY/WX    TMP DP  RH WIND       PRES   REMARKS
CINC-COVINGTON FAIR      24  19  81 N3        30.29R
CINC-LUNKEN    FAIR      27  20  75 N3        30.33R
HAMILTON       FAIR      20  17  88 N5        30.32S WCI  13
DAYTON         FAIR      20  13  74 W5        30.29R WCI  13
WRIGHT-PAT AFB FAIR      19  14  80 CALM      30.29R
DAYTON GENERAL FAIR      22  17  81 CALM      30.28R
WILMINGTON     FAIR      19  15  84 CALM      30.28R
$$

OHZ036-037-039>041-045>050-054>059-063>069-073>076-082>088-051200-
  CENTRAL AND SOUTHEAST OHIO

CITY           SKY/WX    TMP DP  RH WIND       PRES   REMARKS
COLUMBUS       FAIR      19  16  88 CALM      30.26S
OSU AIRPORT    FAIR      21  16  81 NW7       30.26S WCI  12
BOLTON FIELD   FAIR      18  15  89 W3        30.27R
RICKENBACK AFB FAIR      20  15  79 CALM      30.27S
NEWARK         FAIR      21  14  74 CALM      30.25R
MARION         FAIR      21  16  81 NW6       30.26R WCI  13
LANCASTER      FAIR      18  14  84 CALM      30.26S
ZANESVILLE     FAIR      21  15  78 W3        30.25R
NEW PHILLY     FAIR      17  14  88 CALM      30.24R
$$




USA.gov is the U.S. government's official web portal to all federal, state and local government web resources and services.